Погода в Теджене

Погода в Теджене : погода сейчас, прогноз погоды и архив. Всё, что Вы хотите узнать о погоде в Теджене!

Хотите узнать прогноз погоды в Теджене? Тогда Вам сюда: Погода в Теджене

Поиск расширенной информации на нашем сайте:

Другие новости

Новости СМИ2

Главная страница сайта

Новости сайта

03.07.2017

Напоминаем, что на нашем специализированном сайте Метеоцентр.Азия вы можете получить высокодетализированные автоматические прогнозы погоды по пунктам России, СНГ и мира в авиационном формате (включающие направление и скорость ветра, видимость, явления погоды, количество и форму облачности, нижнюю и верхнюю границу облачности).

Рекомендуем: http://www.woomen.biz/ запорожский женский форум.

Погода в Теджене - сегодня

Время (UTC), дата Ветер
(°,м/с) 
Видим.   Явления Облачность Т
(°С)
Тd
(°С)
f(%) Тe
(°С)
Pmin
(гПа)
dP
(гПа)
Po
(мм)
O2
(г/м3)
Тmin Tmax R s Состояние
почвы
21 21.11.17 140 (ЮВ) 10 км    ясно 
+7.1 -3.6 46 +6  1010.3  -1.8  741  291           
00 22.11.17 120 (ЮВ) 10 км    ясно 
+6.5 -2.2 54 +6  1013  -1.6  740  291           
03 22.11.17 170 (Ю) 10 км    6/0 верхняя 
[Ci]
+8.4 -2.7 45 +8  1008.3  -0.2  739  289           
06 22.11.17 тихо ()   10 км    9/0 средняя 
[Ac As]
+18.2 +0.4 30 +18  1007.3  -0.2  739  279  +5         
09 22.11.17 тихо ()   10 км    8/0 средняя, верхняя 
[Ac lent|Cs]
+29.7 +3.2 18 +30  1005.1  -1.4  738  268           
12 22.11.17 тихо ()   10 км    10/0 средняя 
[Ac As]
+23.4 +7.6 36 +23  1005.2  -0.3  738  273           
15 22.11.17 210 (ЮЗ) 10 км    10/0 средняя, верхняя 
[Ac trans|Cs]
+24 +1.9 23 +24  1005.8  0.6  738  273    +29.7       
18 22.11.17 тихо ()   10 км    10/10 1000 м 
[Sc]
+17.5 +4.5 42 +18  1007.3  739  279    +29.7       
21 22.11.17 240 (ЮЗ) 10 км    ясно 
+12 +5 62 +13  1007.9  0.2  739  285           
00 23.11.17 260 (З) 10 км    ясно 
+12.7 +1.9 48 +13  1009.1  1.2  740  285           
03 23.11.17 240 (ЮЗ) 10 км    4/0 верхняя 
[Ci fib]
+12.5 +2.5 50 +13  1010.9  1.7  741  285           
06 23.11.17 270 (З) 10 км    8/0 верхняя 
[Cs]
+16.7 +2.9 40 +17  1011  0.5  742  281  +11.2         
09 23.11.17 090 (В) 10 км    9/0 верхняя 
[Cs]
+22.8 +8.2 39 +23  1010.2  -0.6  741  274           
12 23.11.17 110 (В) 10 км    10/0 средняя 
[Ac trans]
+21.6 +8.8 44 +22  1008.3  -1.6  740  275           
15 23.11.17 320 (СЗ) 10 км    10/0 средняя, верхняя 
[Ac trans|Cs]
+16.1 +5.9 51 +16  1009.9  741  281    +24       
18 23.11.17 340 (С) 10 км  {ливн. осадки}  10/10 1000 м 
[Sc]
+12.3 +7.6 73 +12  1013.8  3.6  744  285    +24       
21 23.11.17 300 (СЗ) 10 км    10/10 600 м кучево-дожд. 
[Cb cap]
+10.4 +7.4 82 +10  1014.7  0.8  744  288           
00 24.11.17 310 (СЗ) 4000 м  {ливн. осадки}  10/10 600 м кучево-дожд. 
[Cb cap]
+10.4 +8.8 90 +10  1016  1.2  745  288           
03 24.11.17 тихо ()   10 км    10/10 600 м кучево-дожд. 
[Cb cap]
+11.4 +7.3 76 +11  1017.7  1.8  746  287         
06 24.11.17 350 (С) 10 км  {ливн. осадки}  10/10 600 м 
[Sc]
+10.8 +6.5 75 +12  1019.4  1.5  748  289  +9.7       
09 24.11.17 тихо ()   10 км    10/10 600 м кучево-дожд. 
[Cb cap]
+12.5 +8.6 77 +13  1018.2  -1  747  286           
12 24.11.17 250 (З) 10 км    10/10 1000 м 
[Sc]
+12.8 +9.3 79 +14  1016.5  -1.6  746  285           
15 24.11.17 140 (ЮВ) 4000 м    10/10 1000 м 
[Sc]
+12.4 +9.9 85 +13  1016.2  -0.3  745  286    +12.9  0.0     
18 24.11.17 090 (В) 10 км    10/10 1000 м 
[Sc]
+12 +9.2 83 +13  1016.2  -0.1  745  286    +12.9  0.0     
21 24.11.17 080 (В) 4000 м  слаб. ливневой дождь  10/10 600 м кучево-дожд. 
[Cb cap]
+11.4 +2.4 54 +10  1015.3  -0.9  745  288           
Время (UTC), дата Ветер
(°,м/с) 
Видим.   Явления Облачность Т
(°С)
Тd
(°С)
f(%) Тe
(°С)
Pmin
(гПа)
dP
(гПа)
Po
(мм)
O2
(г/м3)
Тmin Tmax R s Состояние
почвы

Для получения пояснительной информации подведите курсор к названию столбца.

ПОГОДА в Теджене - архив

Всё, что Вы хотите узнать о погоде в Теджене - удобно и подробно!

Выберите нужную дату (начиная с 1 января 2015* года) и нажмите кнопку "Найти".
Будут отображены архивные сводки погоды по пункту Теджен, начиная с указанной даты.


Отображать данные в формате CSV (для использования в таблицах Excel)


Внимание! Наш архив погоды предназначен исключительно для личного некоммерческого использования в познавательных целях. Если Вам необходимы официальные справки о состоянии погоды (для производственных, юридических, коммерческих и т.п. целей), обращайтесь в органы Росгидромета.

*Примечание: данная дата относится к архиву по метеостанциям СССР (Россия, СНГ, Балтия).
Архив по метеостанциям Зарубежной Европы и Азии (кроме Китая) хранится 10 дней, по другим регионам земного шара (Китай, Африка, Америка, Австралия, Океания) - 1 день.

Теджен - район местоположения метеостанции


Название, широта, долгота, высота метеостанции:
Теджен 37.4°ш. 60.5°д. 186 м над ур. моря [Туркменистан]

Дополнительная информация

В oтличие oт бoльшинства пoгoдных сайтoв мы публикуем пoдрoбную метеoинфoрмацию в детальнoм прoфессиoнальнoм фoрмате.

Характеристики температуры и влажнoсти вoздуха измеряются на высoте 2 м в тени вдали oт зданий и деревьев.
Скoрoсть ветра измеряется на высoте 10 м (на урoвне рoста челoвека скoрoсть ветра ниже в 1.5-2 раза). Если метеoстанция нахoдится в гoрoде или в лесу, тo скoрoсть ветра занижена на 2-4 м/с пo сравнению с oткрытым местoм. Скoрoсть ветра над акватoриями крупных рек и oзёр, а также на вершинах хoлмoв на 2-5 м/с выше, чем в oбычных услoвиях.
Атмoсфернoе давление в разных тoчках местнoсти мoжет значительнo oтличаться oт давления на метеoстанции, в зависимoсти oт услoвий рельефа (при пoдъёме на 10 м давление пoнижается примернo на 1 мм рт.ст.).